This is the latest recevied weather packets stored in our database for station/object AB2HM. If no packets are shown the sender has not sent any weather packets the latest 10 day(s).
| Time | Temp. | Humidity | Pressure | Rain* | Wind** | Luminosity | Snow |
|---|---|---|---|---|---|---|---|
| 1777797338 | 8.89° C | 66% | 1012.5 hPa | 0 mm | - | - | - |
| 1777795536 | 9.44° C | 65% | 1012 hPa | 0 mm | - | - | - |
| 1777793732 | 10° C | 65% | 1012.1 hPa | 0 mm | - | - | - |
| 1777791923 | 10° C | 63% | 1012.1 hPa | 0 mm | - | - | - |
| 1777790123 | 10° C | 61% | 1011.9 hPa | 0 mm | - | - | - |
| 1777788318 | 11.11° C | 58% | 1012.2 hPa | 0 mm | - | - | - |
| 1777786517 | 11.11° C | 55% | 1012.3 hPa | 0 mm | - | - | - |
| 1777784697 | 11.67° C | 53% | 1012.7 hPa | 0 mm | - | - | - |
| 1777782896 | 11.67° C | 52% | 1012.9 hPa | 0 mm | - | - | - |
| 1777781094 | 11.67° C | 51% | 1013.2 hPa | 0 mm | - | - | - |
| 1777779283 | 12.22° C | 49% | 1013 hPa | 0 mm | - | - | - |
| 1777777477 | 12.78° C | 47% | 1012.9 hPa | 0 mm | - | - | - |
| 1777775676 | 13.33° C | 45% | 1012.9 hPa | 0 mm | - | - | - |
| 1777773857 | 13.33° C | 45% | 1013 hPa | 0 mm | - | - | - |
| 1777772041 | 13.89° C | 43% | 1012.8 hPa | 0 mm | - | - | - |
| 1777770227 | 13.89° C | 41% | 1012.5 hPa | 0 mm | - | - | - |
| 1777768409 | 14.44° C | 40% | 1012.3 hPa | 0 mm | - | - | - |
| 1777766591 | 15° C | 38% | 1012.1 hPa | 0 mm | - | - | - |
| 1777764782 | 15.56° C | 38% | 1011.9 hPa | 0 mm | - | - | - |
| 1777762981 | 16.11° C | 37% | 1011.9 hPa | 0 mm | - | - | - |
| 1777761178 | 16.11° C | 38% | 1011.8 hPa | 0 mm | - | - | - |
| 1777759373 | 16.67° C | 38% | 1011.7 hPa | 0 mm | - | - | - |
| 1777757572 | 16.67° C | 37% | 1011.6 hPa | 0 mm | - | - | - |
| 1777755750 | 17.78° C | 36% | 1011.4 hPa | 0 mm | - | - | - |
| 1777753948 | 17.78° C | 34% | 1011.3 hPa | 0 mm | - | - | - |
* Rain latest hour (hover to see other rain measurements)
** Current wind speed in m/s (hover to see current wind gust speed)